GFSNE_prec_cthk_090.txt.gz
RH
88 88 84 84 85 89 78 72 74 74 69 69 73 72 68 68 70 64 58 51 48 47 45 45 44 45 45 47 47 46 48 48 53 52 48 47 56 55
96 94 91 91 87 87 75 73 69 68 64 69 73 69 69 71 70 63 56 52 50 50 50 49 49 49 49 49 46 49 48 50 51 49 50 48 62 61
91 93 93 95 87 94 83 78 72 65 63 67 73 77 76 76 73 65 59 55 52 51 51 51 50 50 50 49 50 51 51 51 50 47 46 47 60 63
92 97 96 94 89 81 81 82 72 74 73 71 79 80 78 76 73 66 58 55 53 54 53 51 51 52 52 53 54 54 54 53 50 53 48 50 51 58
97 93 91 85 79 78 88 84 75 71 75 79 81 83 78 79 71 62 58 57 55 53 51 51 52 51 51 52 55 57 57 53 53 51 52 46 48 61
91 87 83 77 77 87 96 90 82 83 87 90 91 84 82 76 66 60 58 57 53 50 51 51 50 49 49 51 54 57 56 55 51 46 46 44 52 58
85 81 79 87 90 91 95 95 92 88 96 95 91 88 83 73 62 62 57 53 51 55 54 54 53 53 54 53 52 51 54 51 44 42 44 46 51 54
88 84 82 88 94 99 95 92 91 95 96 95 92 88 78 69 64 59 57 56 55 57 60 60 60 57 55 52 50 54 53 47 44 50 52 52 50 54
92 89 88 96 90 87 98 98 95 97 96 95 92 79 72 64 66 58 60 61 61 64 65 58 61 58 55 53 52 51 48 45 47 51 52 56 55 57
88 86 94 98 94 94 95 97 97 98 96 87 74 66 59 66 66 70 65 69 71 70 73 65 67 61 58 53 44 42 43 46 50 58 58 57 56 59
80 88 90 93 93 98 96 97 96 85 78 72 64 62 72 73 72 71 79 80 73 68 74 74 68 65 57 47 40 33 40 50 59 61 62 61 58 62
95 89 96 99 96 98 95 89 86 79 69 68 76 78 77 74 81 81 80 81 82 79 77 78 71 67 57 39 35 45 54 60 62 63 63 64 66 64
92 97 97 97 97 94 90 83 77 81 81 82 82 84 86 88 86 82 80 86 84 79 76 76 64 58 51 44 38 45 61 67 68 71 72 67 64 62
98 97 97 96 91 84 83 91 93 93 92 89 89 91 90 89 87 86 82 78 77 75 68 68 55 49 52 50 49 52 68 75 84 83 80 71 62 58
96 97 97 96 97 97 97 95 93 93 96 97 97 97 95 92 89 86 79 72 68 64 47 41 47 47 53 54 62 63 79 81 86 85 80 70 62 68
97 97 97 97 97 97 97 97 97 97 97 97 97 97 96 91 84 78 72 68 52 32 30 30 34 44 51 59 71 74 85 90 91 88 77 69 66 78
97 97 97 97 97 97 97 97 98 98 98 98 98 94 88 82 75 67 52 38 32 24 19 21 25 31 42 63 74 76 92 97 98 89 75 69 77 86
97 97 97 97 97 98 98 98 98 98 98 97 92 83 70 60 52 39 31 25 22 21 21 21 23 27 36 54 75 86 96 97 93 78 69 75 87 84
96 95 96 97 97 98 99 99 96 89 79 73 67 58 47 38 31 28 27 26 24 24 24 28 33 40 48 60 82 95 98 88 90 79 72 83 86 83
91 89 85 80 76 73 71 69 66 60 52 44 39 36 36 36 35 34 34 33 32 30 29 34 40 48 58 81 91 99 98 91 82 72 80 86 87 84
60 60 59 56 53 49 44 43 42 42 42 42 42 43 43 42 43 43 43 42 42 40 36 38 46 53 73 99 99 99 97 91 73 73 84 90 88 85
36 37 38 40 41 42 43 44 45 46 48 49 49 49 50 52 53 53 54 52 53 51 47 46 54 60 84 99 99 99 97 85 76 78 89 89 88 87
32 35 38 40 43 45 48 50 51 52 55 55 56 57 59 61 63 63 64 65 64 61 58 57 64 68 93 99 99 99 93 80 78 86 90 91 88 91

GFSNE_prec_cthk_093.txt.gz
RH
75 80 91 93 92 94 93 91 93 91 94 78 75 71 67 65 66 62 59 65 63 58 53 51 49 47 47 48 48 46 47 49 48 53 56 57 57 61
85 86 88 94 97 98 97 97 96 92 86 82 77 71 68 67 68 69 70 70 68 61 57 56 54 52 52 52 52 49 51 51 49 50 54 60 64 63
96 95 93 94 97 95 96 96 96 90 89 78 82 77 73 76 76 76 81 80 70 65 59 56 55 55 53 54 51 50 51 53 52 55 59 62 63 65
96 99 96 96 94 91 97 96 95 82 72 77 84 84 76 79 85 87 89 84 79 68 61 60 59 58 58 54 53 56 56 58 60 61 62 59 58 60
96 94 95 93 93 90 95 89 82 77 83 83 88 92 85 88 88 90 86 86 76 68 62 60 59 58 57 53 57 56 58 61 62 61 59 55 57 55
81 80 86 89 86 97 98 79 80 87 95 97 94 92 97 91 92 92 91 85 73 64 61 59 57 57 56 60 64 62 60 59 60 59 58 56 54 48
75 77 75 82 93 91 89 84 86 89 99 99 95 96 98 97 97 97 91 80 68 65 62 61 59 59 65 69 68 67 64 59 56 54 54 54 46 44
73 69 73 80 88 97 89 92 99 99 98 94 97 96 97 96 97 96 80 74 73 68 69 62 65 69 71 70 69 67 62 57 53 52 52 46 44 44
71 73 78 79 99 96 97 98 92 96 96 98 98 97 97 98 94 83 76 66 65 76 74 72 75 75 74 72 69 65 61 54 48 46 44 41 43 47
72 75 80 83 88 95 97 98 96 96 97 98 98 97 91 83 82 74 68 69 77 78 84 79 81 79 80 74 67 64 57 49 45 41 38 42 50 54
64 68 72 82 86 93 92 95 98 96 97 95 91 93 88 80 79 81 86 87 87 89 92 87 87 87 81 78 72 59 55 46 34 31 41 51 57 57
77 86 91 93 94 98 97 95 96 97 96 95 91 91 93 91 91 88 92 95 96 90 97 96 98 95 82 75 71 63 52 40 35 37 51 56 57 61
91 93 94 95 97 97 97 97 97 95 92 94 95 94 94 96 97 97 97 96 94 94 98 95 91 94 88 74 66 57 43 43 43 51 56 58 62 66
97 97 97 97 97 96 97 97 97 97 97 97 97 97 97 97 97 98 98 97 97 96 95 92 80 83 79 69 44 39 42 45 49 55 61 64 71 73
97 97 97 97 97 96 97 97 97 97 97 97 97 97 97 97 98 98 98 98 95 90 83 79 72 65 52 37 40 37 47 50 58 63 67 75 83 79
95 96 96 96 96 96 96 96 97 97 97 97 98 98 98 98 98 98 95 92 85 72 61 52 49 37 33 31 32 32 53 59 64 75 79 80 80 79
91 92 93 94 95 95 95 94 95 96 96 98 98 99 98 95 88 77 68 62 57 52 44 36 31 27 25 23 28 28 43 68 74 85 88 89 84 76
86 87 87 87 87 86 85 82 79 77 75 73 72 71 68 63 59 54 49 43 36 32 30 30 30 29 30 30 29 31 41 71 81 92 98 93 84 78
62 58 57 57 57 57 56 55 54 53 50 50 48 45 43 41 39 40 40 39 37 36 35 35 35 36 42 39 36 40 52 80 92 98 96 87 82 77
41 40 39 38 37 37 38 39 40 42 43 44 45 46 46 46 46 48 48 47 45 44 43 45 44 45 46 44 40 44 65 85 99 99 92 82 76 81
27 27 27 29 30 33 35 37 40 43 45 47 49 50 52 53 53 54 54 54 54 55 55 54 53 49 49 50 48 67 86 99 99 99 92 80 78 92
24 26 28 30 32 35 38 41 44 47 50 53 55 56 58 59 60 62 64 64 66 65 63 61 59 55 58 59 62 88 98 99 99 98 82 76 85 95
24 27 30 33 37 40 43 47 50 54 58 60 62 64 66 68 70 72 74 75 75 74 72 68 66 63 69 69 88 99 99 99 98 86 81 78 88 93

GFSNE_prec_cthk_096.txt.gz
RH
76 75 74 75 76 78 84 92 99 93 93 90 89 90 90 84 75 71 66 62 63 61 62 65 63 57 49 49 49 48 46 45 45 48 51 52 52 60
77 79 78 77 80 83 90 93 98 99 97 96 97 95 92 88 79 69 62 61 64 71 73 68 64 58 55 52 51 49 49 50 51 51 52 56 56 64
82 81 83 86 90 96 98 96 96 97 98 98 95 97 92 84 69 71 72 79 69 71 77 75 71 65 61 56 52 52 50 52 56 51 54 55 59 66
85 88 85 91 97 99 97 98 98 98 97 96 98 96 94 83 80 86 88 89 87 87 89 87 81 72 62 61 57 55 52 54 53 53 56 60 64 67
91 84 82 84 78 84 89 94 97 98 96 93 98 95 90 86 88 93 94 96 95 95 95 92 86 73 70 63 61 58 55 56 54 59 63 65 68 67
89 85 85 91 80 80 79 81 85 84 92 98 97 97 92 92 94 98 98 98 97 97 98 94 90 80 66 62 59 63 61 58 65 66 66 67 67 65
85 89 81 83 82 79 78 77 75 78 83 92 98 97 99 97 99 99 98 97 98 97 96 95 82 70 67 72 76 71 69 71 72 73 71 65 61 59
76 76 69 70 73 73 73 74 72 87 83 99 98 99 98 98 98 98 97 97 97 97 95 93 89 80 73 74 75 76 76 78 78 73 68 64 59 55
68 65 67 66 68 69 72 75 74 78 85 97 97 97 98 98 97 97 98 97 97 97 95 89 86 84 84 84 82 81 78 75 75 71 67 62 55 53
64 62 62 67 71 71 70 78 82 79 82 88 95 95 96 96 97 97 97 96 96 93 90 88 92 93 93 92 90 87 85 77 74 71 65 58 55 49
69 71 74 72 75 80 82 83 88 90 96 98 97 97 97 97 97 97 97 97 96 96 98 96 95 96 94 93 94 95 90 81 74 68 64 58 51 40
79 81 83 87 90 91 93 95 97 97 97 97 97 97 97 96 97 96 97 97 97 95 98 97 98 99 93 92 94 97 95 90 82 72 64 47 30 42
86 90 93 95 95 96 96 95 96 96 96 96 96 96 97 97 97 97 97 97 97 97 99 98 96 98 99 92 93 96 95 93 89 78 48 37 39 47
96 96 95 94 92 91 92 92 91 92 93 94 95 97 97 97 97 97 97 97 98 97 98 98 97 99 99 97 89 90 81 71 72 57 50 58 59 62
93 90 88 88 89 89 89 89 90 92 93 94 94 94 95 96 97 97 98 98 98 98 98 96 91 87 82 78 70 61 60 57 53 63 61 60 70 67
84 85 84 84 83 83 84 84 84 83 82 81 80 77 75 73 71 72 72 73 72 72 71 70 72 71 69 66 68 51 52 44 44 62 77 70 76 72
78 75 70 65 59 56 53 51 51 50 51 52 54 56 57 57 57 57 59 61 64 65 64 66 68 66 59 53 46 41 39 37 36 42 80 79 80 85
45 42 41 41 41 41 41 41 41 41 41 39 41 43 45 46 46 45 46 48 49 51 51 51 51 50 49 42 42 39 40 46 42 47 83 90 88 93
35 34 34 36 36 34 33 32 33 34 35 37 38 40 42 44 45 47 50 53 53 54 54 54 55 55 54 51 50 55 59 51 50 62 92 88 99 99
27 30 34 31 31 30 30 31 32 33 35 38 40 43 45 48 50 54 57 58 58 59 59 61 61 62 61 57 50 43 47 45 45 76 99 98 99 98
24 26 28 26 26 30 32 33 36 38 40 43 46 49 52 56 59 61 63 65 66 68 68 69 69 68 63 61 56 54 55 61 57 92 99 98 99 88
22 23 25 27 29 31 34 36 40 43 47 50 53 56 60 63 66 70 73 75 78 80 79 78 77 75 73 69 62 60 58 71 73 97 99 99 98 85
25 27 29 31 33 36 39 42 45 48 51 56 61 64 68 71 74 78 82 85 87 87 86 83 81 79 76 74 72 69 85 94 98 99 99 98 85 77

GFSNE_prec_cthk_099.txt.gz
RH
75 76 77 77 78 79 80 78 81 81 76 80 80 83 89 91 95 96 97 93 94 86 80 72 63 64 64 65 67 66 63 54 50 47 48 49 51 50
78 76 76 78 79 82 86 86 89 91 88 93 87 88 93 94 95 95 96 96 93 89 79 71 67 71 77 73 72 70 68 65 60 56 52 51 50 52
75 80 82 84 86 87 86 91 88 92 86 88 93 95 96 98 97 94 95 97 94 90 86 80 80 88 92 85 82 80 75 70 64 62 58 52 53 54
78 82 84 87 87 83 84 90 88 94 86 77 80 90 92 96 97 96 91 96 96 94 88 88 94 95 92 91 89 88 81 73 69 64 59 59 59 60
80 83 82 85 88 93 95 88 91 97 90 80 74 81 78 84 89 86 92 92 94 95 98 98 97 96 96 96 96 93 84 76 73 65 61 61 63 64
86 90 92 93 94 96 88 91 88 89 83 82 81 75 72 74 77 97 97 93 98 98 98 98 98 98 98 97 97 93 93 82 70 67 68 68 65 68
88 93 95 96 89 83 81 80 74 72 72 76 73 80 74 85 78 85 86 92 98 98 98 97 98 98 97 97 97 94 81 72 73 85 84 76 74 76
88 87 84 82 78 79 77 73 70 72 74 79 79 79 80 88 82 85 79 83 92 98 98 98 97 96 98 97 97 97 91 87 85 80 77 78 80 82
79 78 81 75 75 72 67 67 67 70 74 78 77 80 82 86 85 87 91 93 95 97 97 95 98 96 97 96 91 88 89 88 87 88 88 84 83 82
76 78 76 74 72 74 73 74 79 82 87 91 92 94 95 96 96 96 97 97 97 97 98 94 98 95 96 95 95 94 93 93 93 93 90 85 82 79
77 81 81 83 82 83 83 85 86 90 93 95 96 98 97 96 96 95 95 94 94 97 98 97 95 96 96 94 93 94 96 96 96 96 94 86 82 81
88 91 87 85 84 85 87 90 93 96 96 94 91 90 90 91 92 94 95 96 97 96 98 97 97 98 96 93 93 96 98 97 97 98 96 92 85 76
85 83 84 85 86 89 92 92 90 87 86 88 89 90 89 90 92 93 95 94 94 95 97 98 97 97 99 95 92 97 98 98 97 95 91 87 86 81
83 84 85 86 86 86 84 81 79 79 79 80 80 82 81 81 80 79 78 78 78 78 78 82 82 82 82 80 74 77 80 78 78 76 79 83 86 80
80 82 81 81 80 76 72 66 59 52 49 46 47 48 48 48 48 48 48 50 51 54 57 60 64 66 67 67 66 64 71 75 77 79 83 87 88 87
77 74 68 60 53 49 48 46 45 43 42 40 39 38 37 37 38 41 41 42 43 41 47 55 61 65 66 69 74 70 76 77 78 81 82 81 78 81
50 47 44 41 39 41 43 40 38 35 33 32 31 30 30 31 32 33 36 37 41 42 44 45 51 58 62 65 67 69 71 76 75 69 65 53 56 78
40 38 38 38 37 37 34 31 30 29 29 29 30 31 32 34 36 37 41 45 47 49 51 51 53 54 53 51 57 57 57 57 58 55 50 50 45 81
33 33 32 29 28 27 28 29 30 30 31 32 34 35 37 39 41 44 47 52 55 58 59 60 60 63 65 63 57 67 69 62 60 62 62 58 54 83
28 25 23 25 28 31 31 32 32 34 35 37 38 41 43 46 48 51 57 60 62 65 67 70 74 75 74 67 58 53 61 59 59 53 45 50 75 99
23 24 27 28 27 28 30 31 34 37 38 41 43 46 49 52 56 60 63 67 70 72 74 77 80 80 76 73 70 69 68 64 63 60 53 73 97 99
22 22 23 24 25 28 30 33 36 41 44 46 48 51 53 56 60 63 68 73 77 79 81 83 84 84 83 81 78 76 69 62 62 55 77 96 98 99
23 24 25 27 29 31 33 36 39 42 46 51 55 58 60 62 66 68 72 77 82 85 85 86 87 87 86 83 80 74 72 70 65 84 98 97 99 99

GFSNE_prec_cthk_105.txt.gz
RH
87 85 84 82 81 80 82 84 88 85 80 79 84 86 87 86 92 89 87 90 92 94 88 84 80 83 87 92 95 96 97 95 94 96 97 97 97 96
84 82 79 77 77 78 83 82 84 84 85 89 87 89 86 88 92 90 93 95 92 91 82 78 76 77 72 80 81 77 87 92 97 98 98 98 98 98
76 75 74 74 73 75 78 84 87 89 88 88 90 91 92 93 94 97 86 81 75 75 72 69 60 63 69 69 73 84 89 92 97 99 98 94 98 98
72 74 74 78 79 82 83 87 90 94 93 88 95 94 99 98 93 86 81 76 73 65 68 61 62 70 74 71 76 83 84 91 92 90 84 88 95 98
81 79 81 85 86 85 88 91 92 93 90 92 95 92 86 98 86 80 75 70 66 66 68 73 73 74 78 83 81 89 91 94 92 91 94 96 97 98
89 90 91 87 79 78 80 84 96 84 92 90 94 90 80 85 85 78 71 72 75 78 80 79 80 81 83 84 86 89 92 94 97 98 98 98 98 98
78 72 72 74 80 85 85 80 80 81 94 81 79 79 86 77 77 80 78 75 77 77 78 81 84 84 84 84 83 84 85 86 88 90 92 94 95 95
75 83 83 84 83 80 78 99 87 85 84 83 92 85 89 91 82 77 77 77 78 80 78 78 81 77 77 78 80 82 84 86 88 90 91 92 94 95
91 92 89 84 84 85 87 97 89 88 85 85 84 88 89 85 79 78 80 81 82 80 76 72 76 75 76 77 80 81 83 84 86 86 87 88 89 92
83 84 83 84 89 89 98 96 97 92 84 85 85 80 78 77 77 76 75 72 70 68 63 59 58 55 54 58 61 66 71 74 77 80 82 84 88 90
94 90 87 95 98 97 87 80 79 79 79 75 72 71 68 62 56 51 46 44 41 38 38 38 36 31 29 30 34 38 43 52 57 64 67 73 81 87
91 90 98 89 82 77 76 74 70 66 60 52 47 45 44 42 43 43 40 35 32 28 29 26 25 25 22 21 19 19 23 28 38 45 51 56 64 69
93 92 82 77 74 65 58 54 50 47 43 40 37 35 36 34 32 30 28 28 28 28 27 30 29 27 29 24 22 25 25 25 26 31 43 52 59 64
86 82 76 66 58 55 53 49 43 38 35 34 32 31 29 27 24 21 20 19 20 22 22 24 25 28 32 32 29 26 31 36 42 37 38 49 58 67
74 66 61 59 54 46 44 41 37 34 31 28 26 25 23 22 19 17 16 16 17 18 21 24 29 34 36 35 37 33 32 34 43 48 43 41 50 63
62 57 51 48 45 44 39 35 32 28 26 24 23 20 19 18 17 18 19 20 19 20 25 28 29 31 32 36 41 40 45 50 49 51 53 44 47 64
50 48 46 41 37 35 32 28 24 22 20 19 19 18 18 18 19 20 22 24 25 25 25 28 32 37 42 52 54 58 57 51 51 52 54 52 51 65
46 43 43 40 31 25 23 22 20 18 19 18 18 19 20 21 23 25 29 29 31 33 34 36 39 40 41 50 67 62 57 58 53 56 60 60 51 62
41 31 25 24 23 22 22 20 18 18 18 18 19 21 23 24 26 28 31 34 37 41 43 46 49 53 52 49 57 75 68 60 61 61 61 61 57 62
23 23 22 22 22 20 18 18 18 18 19 21 22 24 26 29 31 34 37 40 43 46 49 52 57 62 64 64 57 57 70 66 67 65 63 57 57 59
20 20 21 20 19 18 18 18 19 19 20 22 25 28 31 34 37 40 44 49 53 54 54 58 62 66 68 68 67 68 72 74 72 66 61 60 58 60
20 20 19 18 17 18 19 19 20 22 24 27 30 33 37 40 42 45 50 54 58 60 61 62 64 68 72 75 78 77 72 70 71 67 63 59 57 68
19 18 17 18 18 19 20 22 24 26 29 32 35 39 43 46 50 52 55 59 62 63 64 66 70 74 82 84 81 76 74 71 72 73 75 79 92 98

GFSNE_prec_cthk_108.txt.gz
RH
95 94 93 92 90 87 85 84 85 83 80 80 81 84 84 90 89 90 90 89 92 93 92 85 86 84 82 75 74 77 72 69 70 80 79 79 83 89
94 93 91 90 89 89 86 83 81 81 79 81 82 86 89 88 90 93 96 94 95 96 90 84 80 81 74 74 72 66 67 70 75 80 83 83 87 90
93 88 87 88 85 80 80 78 78 85 83 78 83 87 90 90 96 92 93 88 91 89 88 82 74 69 66 69 74 75 75 82 85 86 85 89 92 92
86 83 79 79 76 75 78 81 85 87 88 88 92 93 91 88 88 88 92 93 81 79 77 74 75 72 76 78 80 84 85 85 87 88 90 90 94 94
75 72 74 78 80 82 84 87 90 89 85 84 86 89 86 96 96 86 82 88 76 77 75 80 78 78 79 79 78 77 80 82 85 92 92 91 93 96
76 78 85 87 88 87 83 82 79 79 83 86 84 84 91 91 85 86 82 82 80 80 80 74 72 72 75 77 80 81 81 82 82 82 83 84 87 89
88 87 84 81 79 75 72 73 77 80 88 81 81 96 91 87 89 86 78 75 75 69 65 67 68 67 69 71 71 71 72 74 76 77 79 80 81 83
85 82 83 76 76 79 92 88 88 79 90 93 97 96 93 92 86 82 75 70 67 65 61 60 61 58 57 59 60 60 62 65 66 65 65 66 71 74
79 77 77 80 82 82 81 86 94 94 97 98 93 89 86 80 76 71 66 62 56 49 42 36 35 34 35 36 39 42 46 49 50 53 56 58 59 64
83 85 82 85 83 91 92 90 97 97 92 85 79 75 71 64 58 52 48 43 38 34 30 28 27 25 22 18 16 17 19 23 28 34 40 46 52 53
85 88 86 90 98 95 92 97 92 79 72 65 55 52 51 48 44 42 36 33 30 26 25 26 22 19 15 16 16 16 13 10 11 14 21 29 33 44
88 90 89 94 97 94 91 80 65 57 52 46 45 43 40 40 39 35 31 28 25 22 22 20 19 18 17 16 16 14 16 15 15 16 19 24 28 34
88 95 97 93 85 75 65 60 55 51 48 44 39 37 36 32 28 26 23 20 19 19 18 21 23 23 24 22 21 19 20 17 17 16 18 25 29 35
93 90 85 74 66 65 64 60 52 45 42 39 37 34 31 25 19 17 16 16 16 18 19 23 25 27 27 23 20 17 19 22 28 31 33 30 27 29
85 77 76 73 65 54 52 51 48 43 40 37 28 20 18 17 17 16 16 16 16 17 18 20 22 23 27 30 30 26 27 28 39 38 37 36 37 34
73 70 64 60 57 54 52 50 43 33 22 18 17 17 17 16 16 17 18 18 18 18 20 22 25 29 31 34 37 35 36 40 35 38 40 39 39 43
65 63 60 56 54 48 37 26 21 19 17 17 17 17 17 18 18 19 20 21 22 22 21 25 29 34 37 41 41 43 47 44 46 47 50 48 48 50
58 56 50 40 32 27 21 19 18 18 18 17 17 18 19 20 20 21 22 24 25 28 30 31 32 32 34 41 54 55 51 54 51 54 59 57 49 52
43 35 29 26 22 20 19 18 18 17 17 18 19 20 21 22 23 23 25 28 29 33 37 40 42 44 42 40 47 67 62 60 61 61 62 59 55 50
31 27 24 22 20 19 18 18 18 18 19 20 21 22 23 24 26 27 29 31 34 36 40 45 47 51 55 56 52 54 73 66 66 62 61 60 55 50
28 25 22 20 19 18 18 19 19 20 21 22 23 24 26 28 30 33 34 35 38 42 45 47 51 56 61 67 68 64 68 74 71 66 63 60 55 52
24 23 21 20 19 19 20 20 21 22 22 23 24 27 30 33 37 38 38 40 44 47 49 50 52 60 74 75 71 68 69 72 77 73 66 66 64 79
23 22 21 21 21 21 21 22 22 22 23 25 28 30 33 38 43 46 48 50 49 49 49 52 62 77 79 79 92 97 99 99 98 90 93 92 89 92

GFSNE_prec_cthk_111.txt.gz
RH
98 97 96 96 95 94 95 95 96 93 86 88 87 88 86 85 86 89 90 95 97 97 97 98 94 93 90 88 88 83 73 75 69 72 71 71 73 78
98 98 96 95 96 94 95 97 96 96 91 91 87 89 93 91 93 93 95 97 97 97 93 96 89 88 87 83 81 78 74 73 73 76 81 83 83 85
98 96 96 96 95 95 97 96 96 93 85 78 83 88 87 88 93 96 98 96 94 94 93 91 93 92 94 82 80 81 81 81 81 82 81 80 84 84
96 96 95 96 96 94 94 92 87 82 80 80 84 86 88 84 86 89 89 88 92 92 91 92 87 82 79 80 83 82 81 75 73 75 78 79 78 81
96 93 94 93 90 88 83 83 82 85 87 90 90 86 79 81 82 82 95 95 92 92 90 89 86 82 79 79 77 72 69 69 71 72 74 74 76 77
89 87 82 78 79 82 85 88 91 91 82 76 75 78 84 86 98 92 96 97 92 89 89 86 82 77 71 68 68 68 67 64 63 63 64 67 69 71
74 77 78 79 82 88 87 85 82 77 77 87 93 91 91 86 91 93 89 92 84 80 76 75 67 65 60 57 52 48 46 47 49 49 50 51 53 55
79 83 82 82 85 87 84 76 78 82 86 94 87 93 98 96 95 88 79 74 66 57 50 49 43 38 35 33 31 29 26 25 25 25 26 30 35 37
78 77 78 76 74 77 72 78 83 92 93 93 97 94 91 88 81 66 56 50 47 46 40 34 33 30 27 24 21 18 15 13 14 14 14 15 17 21
77 76 79 79 75 80 89 84 88 95 98 94 87 80 70 62 54 49 45 41 36 33 30 28 25 20 15 13 12 11 11 12 11 11 11 10 17 19
79 77 77 80 81 85 89 88 85 91 79 70 64 61 56 51 46 44 39 35 33 30 24 18 15 12 11 12 12 12 11 11 11 11 11 13 18 19
90 88 83 87 87 83 84 81 78 71 65 60 57 52 54 50 46 42 38 31 21 16 14 13 12 13 16 16 14 12 11 12 12 13 13 19 22 25
92 93 97 95 90 85 81 70 64 59 55 53 57 55 49 45 41 29 21 17 15 14 14 18 19 19 19 18 15 14 15 14 15 15 16 19 22 28
95 97 94 87 84 76 70 62 61 62 62 59 52 46 39 27 20 17 15 14 14 14 14 16 18 19 21 21 20 16 16 18 22 22 28 26 25 26
96 92 85 76 69 66 68 67 63 57 49 43 38 30 21 18 16 14 13 13 13 14 15 17 20 21 23 26 26 22 26 20 26 34 33 33 37 37
77 76 73 74 71 65 61 53 48 43 37 30 23 18 16 14 14 13 13 13 14 15 18 20 22 25 25 28 32 27 29 37 34 39 44 42 43 47
79 75 67 64 58 51 47 41 34 28 25 20 16 15 14 14 14 14 15 16 19 20 19 20 23 26 29 32 31 37 36 40 49 54 55 48 50 56
69 62 53 49 44 40 35 31 27 26 22 18 16 16 16 16 16 17 19 21 21 22 23 25 25 24 24 29 41 52 50 53 53 56 62 62 53 58
53 51 44 40 34 30 29 27 22 19 18 18 18 17 17 19 20 22 24 25 24 24 26 29 31 33 34 34 41 71 55 56 55 56 63 66 60 52
44 39 34 31 29 29 27 23 21 20 19 18 18 19 21 22 25 28 29 29 28 27 28 31 33 39 50 57 55 53 75 68 67 63 62 61 57 52
37 33 32 31 28 24 22 21 20 20 19 19 21 22 23 26 30 32 32 32 32 31 30 30 37 50 61 73 82 85 92 94 86 72 65 68 77 83
31 29 27 27 25 23 22 21 20 20 21 22 23 25 27 30 32 33 35 35 35 34 32 36 46 61 77 88 94 98 97 96 94 93 91 92 98 98
30 29 27 26 25 24 23 21 21 22 23 24 25 27 29 30 34 38 39 39 38 34 35 44 59 79 92 97 99 98 99 99 93 92 99 98 98 98

GFSNE_prec_cthk_114.txt.gz
RH
93 96 96 95 95 91 90 91 93 93 91 89 93 94 96 95 96 97 94 88 88 91 93 95 96 98 95 96 95 93 91 90 87 89 83 80 80 78
96 98 98 96 95 95 96 95 97 97 94 94 94 96 96 94 93 95 95 91 91 91 95 95 94 91 94 96 91 94 88 89 89 82 83 81 82 83
96 97 97 98 98 96 96 96 97 97 96 96 96 95 88 87 89 90 91 91 93 92 90 92 94 95 93 94 95 93 91 87 82 84 80 81 80 76
97 98 97 98 97 97 98 98 97 97 97 95 94 83 83 85 88 95 98 88 83 83 85 87 90 91 94 93 92 92 88 85 81 76 72 67 65 65
98 98 98 98 97 97 97 97 96 95 94 88 84 85 91 92 94 75 78 87 95 87 92 95 92 92 93 86 83 80 77 71 67 65 62 59 57 55
95 94 97 96 96 97 97 93 89 84 82 85 90 95 89 75 85 91 97 96 94 90 94 92 83 75 72 67 60 53 47 40 35 33 31 28 27 26
94 97 98 96 93 89 84 81 81 83 88 91 90 79 76 83 92 93 94 94 92 88 84 77 65 55 51 47 42 38 34 31 27 23 19 16 13 12
89 83 80 79 80 79 79 81 85 91 91 89 81 85 93 98 94 89 85 79 73 63 58 53 48 44 43 39 35 32 26 19 14 13 12 10 9 8
78 77 76 77 80 82 84 86 83 83 81 81 86 86 88 90 84 71 63 57 52 50 46 48 49 44 38 32 22 16 13 11 10 8 8 7 7 8
75 76 77 77 76 77 78 80 83 83 82 86 85 80 70 69 66 58 58 58 54 47 42 38 33 27 21 16 13 10 9 8 7 7 7 7 8 12
76 80 80 80 80 81 83 82 82 83 83 78 73 68 64 58 58 60 58 52 47 41 33 27 22 17 14 10 9 8 8 9 9 10 10 10 11 20
80 82 84 87 89 89 89 87 83 83 81 72 64 64 67 66 61 53 48 41 33 28 24 19 13 11 12 12 12 10 11 11 11 11 12 13 18 23
87 88 89 91 93 91 86 83 82 79 75 77 75 68 60 52 46 41 33 29 25 21 16 14 14 14 17 18 14 11 12 13 13 13 14 16 20 30
92 92 93 93 95 91 84 80 79 80 74 64 56 52 49 44 34 28 24 24 22 16 15 15 16 17 17 15 15 12 13 15 17 20 23 26 30 37
99 98 97 93 86 83 84 84 71 63 58 52 48 42 35 30 28 28 24 17 15 15 16 16 16 15 16 17 18 15 23 18 28 32 33 36 42 46
97 91 86 86 86 79 68 62 56 52 49 42 38 32 31 29 25 20 17 16 15 14 15 15 15 16 16 19 23 29 31 38 33 40 45 44 51 55
94 90 84 74 65 62 57 52 48 42 38 33 32 30 28 23 20 19 19 19 18 17 15 14 16 17 19 25 30 37 38 45 53 53 52 47 52 58
80 69 62 60 56 49 45 42 39 35 34 32 28 24 21 21 20 20 21 21 19 18 18 18 17 16 20 28 49 46 53 54 55 54 57 51 45 48
65 63 59 52 45 42 41 40 37 33 29 25 22 22 22 22 21 22 22 21 21 22 22 20 21 26 32 40 55 64 54 61 70 73 76 80 77 63
52 51 50 47 43 39 36 33 31 27 25 23 23 22 22 22 22 22 23 25 25 23 20 22 28 39 55 67 69 68 69 72 80 81 84 91 94 81
50 44 42 41 38 35 33 31 28 27 26 25 24 23 22 22 22 25 28 28 26 24 22 26 37 54 65 72 71 78 91 90 85 83 86 88 85 90
41 38 36 35 34 33 32 30 29 28 28 26 24 22 22 22 24 28 29 29 28 26 26 33 49 64 67 69 71 80 85 85 89 86 91 97 98 94
38 38 37 36 34 33 32 30 29 28 26 24 24 23 22 23 26 29 32 33 31 28 28 43 59 66 66 68 72 73 76 77 78 76 81 94 95 95

GFSNE_prec_cthk_117.txt.gz
RH
58 64 72 78 81 82 87 91 88 92 92 90 90 92 94 95 94 96 93 91 91 92 90 90 90 92 93 93 96 97 90 86 89 87 89 91 87 87
66 70 79 86 88 89 94 93 94 94 95 94 95 95 94 97 94 93 92 87 87 89 91 92 91 90 91 89 85 87 90 87 88 90 90 91 91 89
80 80 88 93 94 96 97 97 95 95 96 96 97 95 98 98 98 95 89 85 88 89 92 92 90 87 83 83 88 90 91 91 89 91 86 82 80 77
91 90 91 93 94 95 98 96 98 97 97 98 98 99 98 97 98 91 87 90 91 97 96 85 78 84 95 90 89 91 91 83 73 72 65 62 58 54
96 94 95 94 94 97 98 96 97 97 98 98 98 98 97 95 91 88 95 97 91 78 91 93 95 90 92 88 84 83 75 65 57 50 46 43 39 35
98 98 95 96 97 96 97 98 98 98 99 97 95 93 90 89 94 99 96 82 77 81 84 84 86 82 78 73 65 59 53 47 45 41 37 33 30 26
99 97 97 98 98 98 97 97 98 98 97 92 89 89 92 97 94 91 84 81 84 87 86 83 77 65 60 55 51 48 46 42 37 31 24 20 16 13
97 96 97 97 97 96 96 95 90 88 88 89 90 92 92 96 89 80 78 79 70 69 68 64 58 58 55 53 52 45 36 28 23 18 16 13 10 7
99 98 96 96 92 86 83 83 85 85 85 86 86 85 83 76 69 65 69 69 69 63 61 62 58 54 49 43 34 27 25 20 16 12 9 8 9 9
89 86 82 80 81 82 85 86 84 85 84 85 82 80 78 74 70 70 66 67 72 69 62 55 48 43 34 29 24 20 18 14 11 10 10 10 10 9
74 74 75 79 81 83 82 85 87 88 88 86 83 79 71 73 78 82 71 63 57 52 51 45 37 30 25 21 20 20 15 12 11 12 12 12 12 13
73 76 81 82 83 84 87 88 89 87 79 76 82 86 84 77 72 65 62 57 51 48 42 35 31 30 31 26 18 14 16 18 18 17 18 19 24 28
81 83 85 87 88 91 89 83 82 86 95 91 82 73 67 63 60 54 50 47 41 37 33 29 25 26 26 23 16 16 21 22 24 26 30 33 34 38
87 88 89 88 90 91 89 93 95 91 79 74 70 64 61 53 47 42 39 37 33 28 26 22 20 20 21 21 22 19 21 28 31 31 33 35 35 36
91 92 92 93 93 94 97 92 78 75 69 62 53 49 43 39 37 35 34 31 25 23 20 19 17 16 16 21 23 29 29 25 32 35 36 42 40 42
97 97 97 97 97 94 80 74 67 60 53 48 41 38 39 38 38 33 27 25 21 19 18 17 16 16 19 32 29 32 36 35 31 43 47 53 45 48
97 97 97 93 78 72 64 62 57 52 46 42 43 42 38 34 31 28 27 25 22 19 15 14 16 20 31 32 34 34 37 45 47 48 50 48 55 54
91 85 72 68 66 61 57 52 49 44 42 40 38 35 33 32 30 27 26 24 22 19 16 15 18 25 33 36 38 44 46 51 52 57 62 59 61 72
76 70 61 55 49 47 49 46 41 40 39 36 35 33 30 28 27 26 25 24 21 19 16 18 24 32 36 42 45 49 51 53 58 62 69 76 76 79
61 61 57 51 47 44 42 41 39 37 36 33 32 31 29 27 26 27 26 24 21 18 17 22 30 37 40 46 50 55 54 53 58 65 62 74 88 81
55 49 48 46 42 41 39 38 37 36 35 33 31 30 28 27 27 27 27 25 22 19 18 25 36 43 46 52 58 58 66 71 65 60 62 77 75 70
49 48 44 42 42 41 40 38 37 36 35 33 32 30 29 27 26 27 27 27 23 19 19 29 43 48 50 54 55 55 56 64 68 66 67 64 64 64
44 43 44 43 42 41 40 38 37 36 34 32 32 30 28 27 27 28 28 28 25 20 20 36 46 53 57 57 57 55 52 51 52 52 60 65 69 72

GFSNE_prec_cthk_120.txt.gz
RH
69 68 66 68 65 62 63 68 69 78 89 90 91 91 92 92 91 90 92 92 95 94 91 91 89 89 89 90 90 91 90 91 92 84 79 79 82 84
62 57 57 62 61 64 68 71 75 80 89 93 92 96 97 96 95 96 94 97 94 92 90 86 87 89 94 94 94 91 88 85 81 82 84 85 85 86
72 64 62 59 64 73 81 85 88 92 94 96 97 99 98 97 97 98 97 98 98 95 86 88 87 88 94 93 95 84 77 79 86 84 79 77 77 75
87 79 70 64 67 77 85 91 92 93 96 96 98 99 98 96 98 97 98 97 96 90 88 88 90 93 93 79 84 86 82 78 75 72 68 67 62 55
89 93 87 78 81 88 89 92 91 92 96 98 98 98 98 97 98 97 95 94 90 89 87 89 89 80 72 70 76 76 70 67 63 55 50 47 46 46
95 99 96 88 91 96 95 91 92 95 98 98 98 97 96 97 96 94 92 88 87 89 90 87 78 71 66 62 62 58 57 57 55 54 51 46 41 35
99 99 99 96 95 97 97 95 96 97 97 98 97 98 98 98 93 89 88 91 89 81 78 63 64 66 62 58 55 56 55 52 51 47 42 36 31 26
99 99 99 98 98 97 97 96 96 97 97 98 99 97 90 88 89 88 83 75 74 73 68 63 64 73 75 67 59 54 52 52 43 36 33 30 23 21
98 98 97 97 96 98 97 97 99 98 93 90 86 85 86 84 78 76 76 73 70 74 76 75 65 63 64 60 54 50 49 45 39 35 30 24 20 17
98 98 98 98 98 97 99 99 90 85 85 86 87 83 79 80 79 80 82 83 81 82 74 70 65 59 53 48 43 37 32 27 25 23 21 19 18 17
97 99 98 99 95 93 86 83 85 87 87 85 83 83 86 87 89 87 82 76 70 66 62 57 54 45 39 35 32 27 24 20 20 19 19 18 15 16
84 84 80 79 76 77 78 82 86 85 84 84 90 93 87 85 82 75 73 67 62 62 47 39 37 39 39 28 28 26 25 26 26 26 24 28 28 28
70 71 72 74 76 79 82 84 84 86 92 92 89 84 83 79 74 67 57 50 43 40 36 36 34 31 29 30 28 29 28 27 26 27 29 29 22 28
76 77 78 81 82 80 84 90 92 91 89 86 84 78 71 63 56 50 45 40 39 37 33 29 28 28 28 31 31 26 27 28 30 31 31 26 27 33
84 87 88 88 88 90 92 92 93 89 85 76 69 62 56 52 50 46 42 38 34 31 30 26 23 25 32 36 33 30 29 31 32 33 32 33 36 41
91 92 92 94 95 95 94 89 82 73 68 61 56 52 49 49 43 39 36 33 33 33 25 22 23 28 33 37 35 34 34 35 37 41 40 43 50 58
96 96 97 97 96 87 79 73 66 58 54 50 48 47 41 37 36 33 32 30 28 29 29 27 26 32 34 34 37 38 37 37 39 38 40 49 54 62
96 96 96 88 79 70 62 56 52 49 47 43 39 37 37 35 33 32 30 30 31 26 24 24 27 35 36 35 35 37 37 37 36 41 47 50 52 63
95 88 83 74 65 60 57 53 47 44 41 38 38 37 35 33 33 33 33 30 27 25 26 28 31 35 36 37 34 35 37 39 40 45 51 56 60 61
81 70 64 59 58 52 47 43 39 39 39 38 37 36 35 34 33 32 30 28 25 27 27 29 32 34 35 36 34 34 37 39 42 45 46 52 61 65
63 55 52 53 50 46 44 40 39 40 40 39 38 37 34 32 30 29 30 29 27 29 26 28 31 35 38 39 43 41 38 42 45 44 43 44 48 53
52 47 45 45 43 42 43 43 43 42 41 39 37 34 31 29 29 29 30 31 32 26 23 25 32 39 44 45 45 44 44 44 48 50 53 56 56 54
50 47 42 42 46 47 44 43 41 40 38 36 34 31 31 31 31 30 31 31 30 27 25 23 35 43 50 51 50 49 50 49 48 50 55 62 65 70

GFSNE_prec_cthk_126.txt.gz
RH
98 97 93 91 90 84 78 64 67 70 75 80 83 85 81 84 87 92 90 88 87 89 90 90 88 90 91 92 91 93 89 88 89 87 85 85 85 88
99 96 96 97 90 85 77 78 78 71 80 82 86 86 81 81 89 91 87 89 92 92 94 94 95 95 94 94 94 95 97 95 90 85 83 82 79 73
99 98 96 95 97 83 72 78 78 79 81 83 82 83 84 88 88 88 91 92 94 95 96 97 96 93 93 96 97 94 89 87 83 80 79 75 70 64
98 99 97 95 93 92 73 74 79 83 78 75 79 81 83 87 91 93 93 96 96 96 96 96 94 93 94 94 91 85 80 77 74 71 65 66 63 59
98 98 99 97 94 95 84 83 86 90 82 73 78 79 85 88 93 95 95 96 96 95 96 95 96 96 92 87 82 76 77 73 68 68 67 64 60 56
96 98 98 98 94 94 91 92 88 91 83 85 84 87 92 93 95 94 94 96 95 95 96 95 94 87 78 81 81 77 75 73 72 66 59 56 51 44
85 97 99 96 96 95 87 90 86 85 84 80 86 93 96 95 95 95 95 94 96 95 95 90 82 78 79 76 76 78 74 68 60 54 49 42 41 40
91 92 99 96 98 98 94 93 88 87 84 83 89 93 95 98 98 96 95 97 94 93 85 80 81 79 79 83 77 68 62 55 48 45 43 37 36 33
97 99 98 97 99 98 99 97 95 95 95 95 93 97 97 97 98 99 98 94 85 80 83 87 87 86 83 73 65 59 49 45 44 40 38 35 29 27
99 98 99 99 99 99 99 99 98 98 97 97 97 98 98 99 99 95 84 81 86 87 88 92 86 78 70 61 52 49 48 43 40 36 31 29 27 26
97 98 99 99 99 99 99 99 98 98 98 98 98 99 99 98 90 86 86 90 89 91 88 81 73 62 53 51 50 45 40 35 33 30 26 24 25 25
93 97 98 98 98 98 98 98 98 98 98 99 98 98 96 92 88 85 90 93 91 86 75 64 57 51 46 44 41 36 32 32 29 27 22 22 23 22
77 88 95 97 98 98 98 98 98 97 98 98 95 87 83 81 87 92 88 83 74 64 58 52 47 43 39 36 34 32 31 30 27 25 23 25 26 26
68 70 77 87 98 98 96 93 90 87 84 79 77 79 83 88 88 83 73 65 58 53 49 43 38 35 35 35 33 32 31 29 28 26 26 28 30 31
69 69 68 69 70 71 76 80 80 77 79 83 86 90 90 85 75 67 59 56 49 44 39 35 34 35 36 34 32 31 29 29 29 26 27 28 29 30
79 78 78 79 79 82 84 83 82 85 90 94 92 84 74 65 61 56 50 48 42 39 37 35 34 33 34 32 32 31 32 31 28 28 26 28 28 30
87 85 85 84 83 83 84 87 91 92 89 84 75 69 63 58 53 48 42 39 39 39 39 35 33 31 32 32 31 32 31 31 31 29 27 26 28 29
95 93 95 96 96 97 95 96 92 84 76 72 64 62 55 49 45 41 38 37 37 36 35 32 30 27 29 35 35 34 32 32 31 31 30 28 25 30
98 98 98 98 98 97 91 85 79 73 65 60 52 47 44 43 40 39 38 36 34 35 34 33 28 25 27 29 31 35 35 33 31 31 31 30 31 33
98 98 97 97 91 87 83 74 65 58 52 48 43 38 38 40 41 39 38 35 34 33 31 30 28 27 28 31 34 39 38 34 34 31 30 31 33 36
97 97 96 93 84 73 64 59 53 50 46 40 40 42 43 41 40 37 36 34 33 30 29 26 23 28 31 34 36 37 38 39 37 34 35 35 35 35
97 94 84 73 65 61 57 53 51 47 42 43 43 43 41 39 37 36 35 32 31 28 26 24 24 27 32 33 36 38 39 39 38 39 42 44 46 45
83 74 67 63 60 54 53 49 45 46 48 45 44 42 40 38 36 35 33 31 28 27 26 26 26 28 29 32 37 40 40 40 40 41 44 50 56 60

GFSNE_prec_cthk_129.txt.gz
RH
92 95 98 98 96 95 90 79 67 62 68 69 70 70 70 66 71 77 85 92 93 92 89 91 93 94 95 95 94 96 94 93 93 92 91 89 85 77
96 99 99 99 98 96 93 87 78 63 66 68 71 74 73 79 81 86 90 89 91 88 91 94 96 96 97 98 98 96 94 94 92 87 83 77 73 71
96 99 99 99 98 98 97 93 87 79 71 73 82 85 86 90 94 88 87 94 94 94 95 94 97 97 98 98 98 95 94 88 80 79 78 75 68 62
91 97 98 99 98 97 98 96 92 91 88 90 88 92 94 96 96 92 92 97 95 95 96 97 97 97 98 96 96 94 86 82 82 75 69 69 70 65
85 92 98 98 98 98 99 99 93 91 89 90 93 94 95 96 93 93 93 97 97 97 97 97 98 98 97 95 88 88 80 75 68 68 66 66 63 56
76 78 90 97 96 96 98 99 94 86 89 92 90 97 96 93 91 93 96 98 98 97 98 98 98 98 94 89 84 74 70 69 73 68 64 57 50 43
73 74 74 86 96 98 97 94 98 93 87 91 90 97 94 94 92 92 98 98 98 98 98 98 96 91 88 81 77 80 77 69 66 58 54 45 43 41
73 75 76 79 92 99 97 98 98 96 93 91 89 97 94 95 92 97 97 98 98 98 98 97 91 84 78 80 80 77 71 66 56 48 46 44 40 36
72 75 82 94 93 98 99 97 97 96 93 93 93 95 94 94 92 94 98 99 98 99 98 87 83 80 79 84 78 68 59 51 48 45 40 35 29 30
76 85 95 99 95 97 97 97 98 97 94 96 97 98 97 97 97 98 98 98 98 95 89 87 86 90 83 75 61 57 51 47 43 36 30 28 28 30
75 85 98 98 98 99 99 99 98 98 98 98 98 98 98 98 98 98 98 98 96 95 91 89 90 81 69 62 55 49 48 40 35 31 29 29 28 28
69 81 98 98 99 99 99 98 99 98 99 98 98 98 98 98 99 98 98 98 96 93 90 88 73 65 59 53 50 45 40 38 35 32 29 27 27 25
64 72 89 96 98 98 98 98 99 99 99 99 98 99 98 98 98 98 97 92 86 83 74 66 62 57 50 46 43 41 40 38 34 31 28 27 25 23
67 65 75 88 94 97 98 97 98 98 98 98 98 98 98 98 92 84 83 77 72 69 64 60 51 46 44 40 39 39 38 34 29 26 25 24 24 24
68 70 70 68 77 94 99 99 99 96 97 95 94 91 87 81 78 80 79 72 67 62 55 49 44 41 40 37 37 36 33 29 27 25 24 24 24 23
72 72 72 72 76 75 72 74 77 83 85 85 86 86 89 83 79 74 71 64 58 52 47 42 39 38 38 37 35 32 30 27 26 25 25 26 25 25
77 78 80 80 78 76 77 79 83 87 87 86 89 86 81 76 72 66 62 57 48 41 39 39 37 37 36 35 33 30 28 26 27 27 26 26 27 25
87 87 87 87 89 91 91 91 93 92 92 87 83 81 76 72 64 56 49 42 39 38 39 38 36 35 33 32 31 28 28 28 28 29 28 25 26 28
91 91 93 97 96 96 97 97 97 93 88 84 77 71 61 52 48 44 41 39 39 40 38 35 32 30 29 28 26 28 30 30 29 29 29 29 29 31
98 98 98 97 97 97 97 97 90 86 77 69 61 53 49 46 44 44 42 41 39 38 35 32 29 27 25 24 29 31 32 32 33 32 31 31 31 32
97 97 97 97 97 97 95 86 77 70 62 54 51 49 47 46 45 43 42 41 38 35 32 30 27 23 24 26 28 31 36 37 37 35 34 31 28 30
97 97 97 97 96 85 76 68 61 54 52 51 50 48 47 46 45 44 41 38 35 33 32 28 25 25 27 28 30 32 36 38 39 38 37 35 35 38
96 96 92 82 75 71 64 61 58 54 52 52 51 49 47 46 44 42 40 37 35 33 28 27 27 25 26 29 30 33 37 38 39 40 42 45 51 53

GFSNE_prec_cthk_132.txt.gz
RH
54 68 88 95 98 96 98 94 90 93 90 82 70 66 65 61 63 66 66 69 78 90 93 94 89 88 94 96 94 95 97 97 97 96 94 91 87 81
61 80 96 97 97 99 98 96 95 91 91 83 70 67 65 69 72 69 67 73 83 92 97 96 92 94 96 95 96 95 95 96 95 94 85 83 79 71
66 90 94 97 98 99 99 98 96 95 91 82 75 69 70 74 76 73 70 79 86 95 97 98 95 96 98 97 96 96 96 95 93 87 85 79 65 62
65 79 91 95 99 98 98 98 96 96 88 83 79 72 72 79 81 86 93 96 95 95 96 98 96 98 98 98 98 98 95 90 89 84 73 64 59 59
64 66 81 90 97 98 98 99 97 97 94 87 85 79 79 84 91 98 93 98 97 95 95 98 97 98 98 98 97 94 93 90 83 71 66 64 62 60
63 66 76 78 89 98 98 99 99 98 98 96 95 92 91 95 97 96 98 97 97 97 98 97 98 98 98 97 93 95 90 88 76 66 62 62 58 51
61 64 71 75 82 86 94 98 98 98 99 97 96 95 96 96 95 96 97 98 98 95 96 98 97 98 97 98 96 93 87 68 69 67 64 56 50 45
62 67 74 75 75 82 84 95 98 94 97 98 96 95 94 98 95 98 98 97 96 97 97 97 98 98 97 94 95 86 72 74 67 60 55 51 44 38
59 65 72 71 80 79 84 93 96 97 98 97 95 94 96 94 91 96 98 98 99 98 98 98 98 98 98 91 90 76 72 68 60 56 47 43 36 34
65 66 70 73 82 83 96 97 99 98 96 98 98 97 97 96 96 97 98 98 98 98 98 98 98 97 95 90 79 71 66 60 51 47 40 36 33 32
63 63 67 78 83 94 99 97 98 99 98 99 98 98 98 98 96 97 98 98 98 98 98 98 97 97 92 83 71 66 59 54 46 40 37 33 31 31
63 66 67 71 93 97 98 99 99 99 98 99 98 99 98 98 98 98 98 98 98 98 98 98 97 95 82 71 65 62 54 47 41 38 35 31 30 30
64 65 66 70 87 98 98 98 98 99 99 98 98 98 98 98 98 98 98 98 98 98 98 97 94 78 71 66 60 54 49 45 42 37 35 33 31 28
64 67 67 66 74 92 96 96 98 99 98 98 99 99 98 98 98 98 98 98 98 95 92 82 71 69 62 55 50 48 45 42 37 36 35 33 29 24
68 66 67 66 67 80 92 98 98 98 98 98 98 98 98 98 98 98 98 95 83 72 74 73 66 59 53 48 44 44 41 37 38 36 33 28 25 23
70 66 66 67 66 64 75 92 95 97 97 97 98 98 98 98 97 93 86 83 79 76 68 61 54 51 46 43 41 38 39 38 36 33 28 26 25 23
79 74 72 69 70 70 74 77 82 89 96 92 89 88 88 88 85 81 77 74 69 63 59 51 47 43 42 39 37 38 37 35 33 28 26 25 24 24
85 81 76 76 74 77 78 81 79 82 79 81 85 84 81 80 81 79 74 69 62 52 47 44 42 41 39 39 39 38 37 33 28 26 24 23 25 26
92 86 82 83 85 85 87 88 91 93 94 93 97 92 87 85 77 71 62 53 49 46 43 42 40 39 39 39 38 37 33 29 28 27 27 27 25 28
98 98 97 98 98 95 94 95 98 97 97 96 90 82 75 68 62 55 51 47 44 44 43 41 39 38 37 36 35 33 28 29 29 28 28 29 29 31
98 99 98 98 98 97 97 97 97 96 90 81 75 70 64 57 52 51 50 48 47 46 43 41 38 36 35 33 29 27 31 32 29 29 33 32 31 33
97 97 97 97 97 97 97 96 89 83 75 68 64 57 53 53 53 53 51 47 46 45 43 41 40 37 33 26 27 30 31 32 34 37 36 34 35 35
97 96 97 97 97 96 90 80 73 67 64 62 62 61 57 53 53 50 49 48 47 46 44 42 39 35 28 29 28 28 29 31 35 39 41 41 40 40

GFSNE_prec_cthk_135.txt.gz
RH
78 68 56 45 60 82 88 90 95 98 98 95 88 82 75 73 61 58 60 59 61 69 72 76 81 88 92 93 92 93 94 93 93 95 94 97 92 89
78 71 46 52 66 90 96 94 98 97 97 96 95 86 79 77 69 66 63 63 68 73 78 81 87 96 96 94 93 93 96 95 95 96 95 94 91 88
73 62 49 56 74 94 94 99 98 98 98 96 95 92 87 82 74 68 66 65 69 74 81 84 91 94 99 97 97 95 96 96 97 96 94 92 89 78
67 63 48 64 70 89 94 99 99 99 98 97 96 95 93 88 82 78 76 74 76 75 81 87 92 94 95 98 98 97 96 97 97 96 94 86 80 75
70 69 58 62 66 77 95 94 98 99 99 95 95 96 95 92 86 85 84 81 83 83 87 92 95 96 98 97 98 97 96 96 96 95 88 82 73 58
74 70 60 60 65 71 83 87 99 99 98 98 98 97 96 93 90 87 85 88 92 93 94 99 99 98 98 97 97 97 97 97 96 93 83 72 62 60
75 72 62 59 64 71 77 82 94 98 99 98 99 98 96 91 90 91 93 96 96 96 97 98 98 98 98 97 98 97 97 97 92 86 80 63 60 53
80 76 64 61 61 68 72 77 82 88 97 98 98 96 95 95 94 96 96 97 98 98 98 98 99 98 98 97 98 98 98 97 88 78 68 63 56 50
82 80 64 60 61 69 74 72 75 84 89 95 96 95 95 95 96 97 98 98 98 98 98 98 99 99 98 98 98 98 97 89 80 72 67 56 49 46
82 82 68 61 64 67 75 72 79 79 90 97 98 97 96 97 98 97 97 98 98 98 98 98 98 98 98 98 98 98 91 84 75 66 54 53 46 41
87 81 72 65 66 67 69 73 80 81 95 98 99 98 99 99 99 99 98 98 98 98 98 99 98 98 98 98 98 96 87 77 67 58 53 49 43 40
87 86 77 65 66 66 69 79 83 97 96 96 99 99 98 99 99 98 98 98 98 98 98 98 98 98 97 98 97 89 79 69 61 54 50 44 40 36
87 87 78 68 65 66 67 73 92 96 97 97 98 99 97 98 98 99 98 98 98 98 98 98 98 98 97 96 94 81 69 63 56 52 46 42 37 33
82 82 84 72 65 66 68 68 85 98 96 97 98 98 98 99 98 99 99 98 98 98 98 98 98 97 96 87 78 68 60 56 52 47 42 39 36 34
75 81 86 74 65 64 66 71 76 95 98 99 99 98 98 99 98 98 98 99 98 98 98 98 97 90 84 71 62 55 53 49 46 44 42 39 37 34
73 81 87 75 69 64 65 66 71 83 97 99 98 98 99 98 98 98 98 98 98 97 96 87 83 75 64 60 54 50 46 46 45 43 41 38 36 33
80 83 90 80 71 66 66 65 68 77 86 95 98 99 98 98 97 98 98 97 95 91 86 78 69 64 59 55 49 48 48 47 44 42 38 37 35 30
85 88 94 88 78 75 69 68 70 74 80 83 90 96 95 90 88 88 88 83 77 73 71 65 62 57 53 49 49 48 47 46 42 39 37 35 31 30
86 91 96 93 86 83 81 76 77 79 82 83 83 83 80 82 84 78 76 79 76 70 64 56 52 49 47 48 49 50 47 44 42 40 37 31 29 31
94 92 94 97 95 94 90 89 87 87 89 88 91 93 93 93 92 83 76 72 64 59 54 52 49 48 50 49 46 44 44 43 40 39 34 33 32 30
96 92 95 98 99 98 98 98 97 97 95 95 95 96 91 81 76 72 65 60 53 52 53 55 54 50 46 46 47 47 45 41 39 35 33 33 33 32
97 98 98 98 98 97 98 97 97 97 97 94 88 82 77 72 65 61 55 56 63 62 55 51 48 47 47 46 45 42 42 41 36 36 36 35 33 33
97 97 97 97 97 97 97 97 97 94 87 83 76 70 64 61 61 66 68 61 55 54 52 53 54 51 48 45 42 40 35 32 33 39 39 36 36 39

GFSNE_prec_cthk_141.txt.gz
RH
59 57 55 76 82 88 85 78 69 61 48 48 59 72 78 88 95 92 84 73 61 56 64 57 56 64 69 73 74 75 77 78 83 89 92 91 92 91
73 61 53 73 80 86 88 86 78 70 57 54 64 78 77 84 92 95 93 89 76 64 64 66 56 59 67 71 73 77 78 80 89 94 95 95 93 94
86 71 57 71 80 84 87 88 81 77 56 57 71 92 92 92 94 98 96 94 87 75 66 71 59 56 61 70 73 77 81 84 94 94 97 95 94 95
79 73 59 69 82 86 85 86 81 80 66 48 60 78 94 97 96 98 97 96 91 86 76 75 68 64 60 67 80 83 87 93 94 98 94 96 97 97
62 59 59 68 77 82 86 88 83 78 59 62 60 64 88 95 96 97 98 97 96 95 86 84 79 75 71 73 80 84 89 93 99 97 96 96 98 96
74 61 57 61 75 81 82 86 85 69 69 66 61 63 77 84 87 98 98 98 98 99 94 90 91 85 84 84 86 86 88 91 96 97 98 98 98 95
78 76 66 65 73 85 82 83 77 73 72 70 62 64 67 76 89 99 99 99 99 99 98 96 93 96 94 88 89 87 87 88 96 98 98 98 96 97
81 94 71 69 74 78 80 83 80 78 75 74 61 62 66 73 80 99 99 99 99 98 99 98 97 97 96 91 96 94 91 95 98 98 99 98 98 92
62 72 84 81 78 76 78 80 79 81 77 76 66 63 66 75 79 97 98 99 98 98 98 98 98 98 98 98 97 96 95 97 99 99 98 98 94 89
61 64 74 96 94 85 78 79 79 80 79 78 68 63 67 74 73 85 96 99 98 98 98 98 98 98 98 98 98 98 98 99 99 98 98 96 92 85
56 75 70 73 88 94 87 78 78 81 81 79 72 67 65 72 72 74 87 97 98 98 99 99 98 98 98 98 98 98 98 99 99 98 98 95 88 81
59 58 64 70 82 95 93 87 78 78 83 75 70 70 63 68 71 79 86 96 98 98 98 98 98 98 98 98 98 98 98 98 98 98 97 91 83 77
55 61 66 62 70 79 82 86 81 76 80 83 77 68 66 66 68 88 92 94 98 98 97 98 98 98 98 98 98 98 98 98 97 97 92 85 77 68
51 63 57 66 68 76 76 87 86 79 85 85 76 73 68 69 69 84 96 96 99 99 98 98 98 98 98 98 98 98 98 97 97 93 86 77 68 63
43 62 67 66 71 84 89 93 86 82 85 85 78 71 69 70 70 83 96 98 98 99 98 98 98 98 98 98 98 98 97 97 95 88 79 69 63 59
41 58 77 83 87 94 97 95 89 90 83 83 85 75 72 68 67 81 98 98 99 98 98 98 98 98 98 98 98 98 97 94 87 77 69 67 64 59
43 51 68 75 85 96 93 91 93 91 84 77 83 77 75 66 67 80 98 99 98 98 98 98 98 98 97 97 97 96 91 83 76 71 69 67 58 54
44 48 66 73 86 84 85 94 94 92 86 75 81 83 74 67 72 79 92 98 98 98 97 97 97 97 97 95 89 84 80 76 69 70 63 58 55 55
49 53 58 76 85 94 96 98 97 96 92 80 76 84 77 74 77 80 85 91 97 97 97 97 98 97 96 90 88 75 69 68 65 61 58 57 58 52
54 55 57 61 89 97 99 99 98 97 92 78 76 87 83 80 84 83 85 86 90 93 96 93 88 79 72 72 75 72 70 70 61 59 60 57 52 51
61 58 58 62 82 92 96 98 99 95 92 79 86 93 90 85 88 88 89 89 90 87 79 79 79 80 74 66 69 75 66 62 63 60 54 51 50 48
68 67 63 63 81 94 98 98 98 97 98 89 93 95 93 90 90 92 88 85 84 86 87 81 72 67 73 74 64 64 67 62 57 53 50 49 48 52
74 72 70 70 82 93 93 97 97 97 96 96 98 97 95 95 94 96 95 91 85 73 68 73 78 74 65 66 67 67 62 57 52 49 48 46 44 43